Angoon, AK

4:12 PM AKST on December 06, 2019 (GMT -0900)
Angoon

Weather History for PAGN - May, 2019

Change the Weather History Date:

Monday, May 13, 2019

  Actual Average (PASI) Record (PASI)
Temperature  
Mean Temperature 48 °F 47 °F  
Max Temperature 62 °F 53 °F 76 °F (2016)
Min Temperature 37 °F 42 °F 32 °F (1964)
Degree Days  
Heating Degree Days 16 18  
Month to date heating degree days 246  
Moisture  
Dew Point 38 °F    
Average Humidity 69    
Maximum Humidity 93    
Minimum Humidity 41    
Precipitation  
Precipitation 0.00 in 0.15 in 0.69 in (1985)
Month to date precipitation 1.80  
Year to date precipitation 27.17  
Sea Level Pressure  
Sea Level Pressure 29.89 in    
Wind  
Wind Speed 1 mph (WNW)    
Max Wind Speed 6 mph    
Max Gust Speed -    
Visibility 10 miles    
Events      
T = Trace of Precipitation, MM = Missing Value Source: NWS Daily Summary

Daily Weather History Graph

Daily Weather History Graph

Search for Another Location

Airport or City:

Astronomy

May. 13, 2019 Rise Set
Actual Time 4:41 AM AKDT 9:09 PM AKDT
Civil Twilight 3:48 AM AKDT 10:03 PM AKDT
Nautical Twilight 2:21 AM AKDT 11:32 PM AKDT
Astronomical Twilight Sun does not rise Sun does not rise
Moon 1:57 PM AKDT (5/13) 3:41 AM AKDT (5/13)
Length of Visible Light 18h 14m
Length of Day
16h 28m
Waxing Gibbous, 70% of the Moon is Illuminated
May 13
Waxing Gibbous
May 18
Full
May 26
Last Quarter
Jun 3
New
Jun 9
First Quarter

Hourly Weather History & Observations

Time (AKDT) Temp. Dew Point Humidity Pressure Visibility Wind Dir Wind Speed Gust Speed Precip Events Conditions
12:56 AM 41.0 °F 37.9 °F 89% 29.95 in 10.0 mi Calm Calm - N/A   Clear
1:56 AM 39.9 °F 37.0 °F 89% 29.95 in 10.0 mi Calm Calm - N/A   Clear
2:56 AM 37.9 °F 36.0 °F 93% 29.95 in 10.0 mi Calm Calm - N/A   Clear
3:56 AM 37.0 °F 35.1 °F 93% 29.94 in 10.0 mi Calm Calm - N/A   Clear
4:56 AM 37.0 °F 35.1 °F 93% 29.93 in 10.0 mi Calm Calm - N/A   Clear
5:56 AM 37.9 °F 36.0 °F 93% 29.93 in 10.0 mi Calm Calm - N/A   Clear
6:56 AM 41.0 °F 37.0 °F 86% 29.92 in 10.0 mi Calm Calm - N/A   Clear
7:56 AM 44.1 °F 37.9 °F 79% 29.92 in 10.0 mi Calm Calm - N/A   Clear
8:56 AM 46.9 °F 37.9 °F 71% 29.91 in 10.0 mi Calm Calm - N/A   Clear
9:56 AM 48.9 °F 39.0 °F 69% 29.91 in 10.0 mi Variable 3.5 mph - N/A   Clear
10:56 AM 52.0 °F 37.9 °F 59% 29.91 in 10.0 mi South 4.6 mph - N/A   Clear
11:56 AM 52.0 °F 37.0 °F 57% 29.90 in 10.0 mi Variable 4.6 mph - N/A   Clear
12:56 PM 55.0 °F 39.9 °F 57% 29.88 in 10.0 mi Calm Calm - N/A   Clear
1:56 PM 57.0 °F 39.0 °F 51% 29.88 in 10.0 mi SW 5.8 mph - N/A   Clear
2:56 PM 55.0 °F 43.0 °F 64% 29.87 in 10.0 mi NNW 3.5 mph - N/A   Clear
3:56 PM 60.1 °F 36.0 °F 41% 29.86 in 10.0 mi Variable 3.5 mph - N/A   Clear
4:56 PM 59.0 °F 35.1 °F 41% 29.86 in 10.0 mi North 4.6 mph - N/A   Clear
5:56 PM 59.0 °F 36.0 °F 42% 29.85 in 10.0 mi Calm Calm - N/A   Clear
6:56 PM 57.0 °F 41.0 °F 55% 29.83 in 10.0 mi Calm Calm - N/A   Clear
7:56 PM 55.9 °F 34.0 °F 44% 29.84 in 10.0 mi Variable 3.5 mph - N/A   Clear
8:56 PM 51.1 °F 39.0 °F 63% 29.84 in 10.0 mi Calm Calm - N/A   Clear
9:56 PM 48.9 °F 39.0 °F 69% 29.84 in 10.0 mi Calm Calm - N/A   Clear
10:56 PM 48.0 °F 39.9 °F 74% 29.84 in 10.0 mi Calm Calm - N/A   Clear
11:56 PM 46.0 °F 39.0 °F 76% 29.84 in 10.0 mi Calm Calm - N/A   Clear